LiveATC.Net - Listen to live air traffic control over the Internet!


ICAO: ENRK  IATA:   Airport: Rakkestad Airport
City: Astorp
Country: Norway   Continent: Europe
ENRY METAR Weather: ENRY 161320Z AUTO 19010KT 9999NDV OVC007/// 15/14 Q1015
ENRK Flight Activity (FlightAware)

ENRK CTAF
Feed Status: DOWN
Last heard on: 2019-06-06 14:33:02 (9 days 23 hours 16 minutes ago)
ENRK CTAF Audio Archives
FacilityFrequency
Rakkestad CTAF122.950

NOTICE

Unauthorized use prohibited. See LiveATC.net Terms of Service


Find LiveATC Audio Streams


Airport/ARTCC Code

Frequency Search
(e.g., 124.400, 128.75)
Site-wide search
 


Browse LiveATC Feeds
Top 50 LiveATC Feeds
LiveATC Feed Map
Bad Weather Areas

LiveATC FAQ
Offer LiveATC feed
Contact LiveATC.net
Press Inquiries

LiveATC on iPhone
LiveATC on Android

Windows Phone
Windows 8/10

LiveATC Mobile
(Mobile browser)

ATC Audio Archives
Interesting Recordings

LiveATC Forums


Home Page
About LiveATC.net
Make a Donation
Terms of Use
Privacy Policy

Canadian Air Freqs

AIRMETs/SIGMETs

FAA Airport Status
Nat'l Airspace Status
Arrival Demand Charts


Server Software By:
Icecast.org
Liquidsoap